This is the latest recevied weather packets stored in our database for station/object OK1TBM-13. If no packets are shown the sender has not sent any weather packets the latest 10 day(s).
| Time | Temp. | Humidity | Pressure | Rain* | Wind** | Luminosity | Snow |
|---|---|---|---|---|---|---|---|
| 1788416102 | 16.11° C | 87% | 1018.3 hPa | 0 mm | - | 161 W/m² | - |
| 1788415801 | 15.56° C | 92% | 1018.3 hPa | 0 mm | - | 149 W/m² | - |
| 1788415501 | 14.44° C | 99% | 1018.3 hPa | 0 mm | - | 136 W/m² | - |
| 1788415202 | 14.44° C | 99% | 1018.3 hPa | 0 mm | - | 126 W/m² | - |
| 1788414901 | 13.33° C | 99% | 1018.3 hPa | 0 mm | - | 118 W/m² | - |
| 1788414601 | 13.33° C | 99% | 1018.3 hPa | 0 mm | - | 109 W/m² | - |
| 1788414301 | 13.33° C | 99% | 1019 hPa | 0 mm | - | 101 W/m² | - |
| 1788414001 | 11.67° C | 99% | 1019 hPa | 0 mm | - | 63 W/m² | - |
| 1788413701 | 11.67° C | 99% | 1019 hPa | 0 mm | - | 47 W/m² | - |
| 1788413401 | 11.67° C | 99% | 1019 hPa | 0 mm | - | 41 W/m² | - |
| 1788413102 | 11.67° C | 99% | 1019 hPa | 0 mm | - | 49 W/m² | - |
| 1788412802 | 11.67° C | 99% | 1018.3 hPa | 0 mm | - | 54 W/m² | - |
| 1788412501 | 11.67° C | 99% | 1018.3 hPa | 0 mm | - | 48 W/m² | - |
| 1788412201 | 11.67° C | 99% | 1018 hPa | 0 mm | - | 37 W/m² | - |
| 1788411902 | 11.67° C | 99% | 1018 hPa | 0 mm | - | 33 W/m² | - |
| 1788411301 | 11.11° C | 99% | 1018 hPa | 0 mm | - | 27 W/m² | - |
| 1788411001 | 11.11° C | 99% | 1018 hPa | 0 mm | - | 23 W/m² | - |
| 1788410701 | 11.67° C | 99% | 1018 hPa | 0 mm | - | 20 W/m² | - |
| 1788410401 | 11.67° C | 99% | 1018 hPa | 0 mm | - | 16 W/m² | - |
| 1788410101 | 11.67° C | 99% | 1018 hPa | 0 mm | - | 14 W/m² | - |
| 1788409802 | 11.67° C | 99% | 1018 hPa | 0 mm | - | 11 W/m² | - |
| 1788409501 | 11.67° C | 99% | 1018 hPa | 0 mm | - | 7 W/m² | - |
| 1788409207 | 11.67° C | 99% | 1018 hPa | 0 mm | - | 5 W/m² | - |
| 1788408902 | 11.67° C | 99% | 1018 hPa | 0 mm | - | 3 W/m² | - |
| 1788408602 | 11.67° C | 99% | 1018 hPa | 0 mm | - | 2 W/m² | - |
* Rain latest hour (hover to see other rain measurements)
** Current wind speed in m/s (hover to see current wind gust speed)